Russell, KS

5:24 PM CST on February 12, 2016 (GMT -0600)
Russell Municipal

Weather History for KRSL - October, 2012

Change the Weather History Date:

Wednesday, October 10, 2012

  Actual Average Record
Temperature  
Mean Temperature 48 °F -  
Max Temperature 68 °F 69 °F 95 °F (1953)
Min Temperature 28 °F 42 °F 28 °F (2012)
Degree Days  
Heating Degree Days 17    
Moisture  
Dew Point 26 °F    
Average Humidity 47    
Maximum Humidity 81    
Minimum Humidity 21    
Precipitation  
Precipitation 0.00 in - - ()
Sea Level Pressure  
Sea Level Pressure 30.18 in    
Wind  
Wind Speed 7 mph (SSW)    
Max Wind Speed 17 mph    
Max Gust Speed 25 mph    
Visibility 10 miles    
Events      
Averages and records for this station are not official NWS values.
T = Trace of Precipitation, MM = Missing Value Source: NWS Daily Summary

Daily Weather History Graph

Daily Weather History Graph

Search for Another Location

Airport or City:

Trip Planner

Search our weather history database for the weather conditions in past years. The results will help you decide how hot, cold, wet, or windy it might be!

Date:

Astronomy

Oct. 10, 2012 Rise Set
Actual Time 7:40 AM CDT 7:03 PM CDT
Civil Twilight 7:13 AM CDT 7:29 PM CDT
Nautical Twilight 6:42 AM CDT 8:00 PM CDT
Astronomical Twilight 6:11 AM CDT 8:31 PM CDT
Moon 2:20 AM CDT (10/10) 4:04 PM CDT (10/10)
Length of Visible Light 12h 16m
Length of Day
11h 23m
Waning Crescent, 27% of the Moon is Illuminated
Oct 10
Waning Crescent
Oct 15
New
Oct 21
First Quarter
Oct 29
Full
Nov 6
Last Quarter

Hourly Weather History & Observations

Time (CDT) Temp. Windchill Dew Point Humidity Pressure Visibility Wind Dir Wind Speed Gust Speed Precip Events Conditions
12:53 AM 37.0 °F 34.5 °F 24.1 °F 59% 30.22 in 10.0 mi WNW 3.5 mph - N/A   Clear
1:53 AM 34.0 °F 29.8 °F 24.1 °F 67% 30.22 in 10.0 mi West 4.6 mph - N/A   Clear
2:53 AM 32.0 °F 27.5 °F 23.0 °F 69% 30.23 in 10.0 mi West 4.6 mph - N/A   Clear
3:53 AM 30.0 °F 26.5 °F 23.0 °F 75% 30.25 in 10.0 mi West 3.5 mph - N/A   Clear
4:53 AM 30.9 °F 25.2 °F 23.0 °F 72% 30.25 in 10.0 mi West 5.8 mph - N/A   Clear
5:53 AM 30.0 °F 25.2 °F 23.0 °F 75% 30.25 in 10.0 mi West 4.6 mph - N/A   Clear
6:53 AM 28.0 °F 21.7 °F 23.0 °F 81% 30.27 in 10.0 mi SSW 5.8 mph - N/A   Clear
7:53 AM 28.0 °F 21.7 °F 21.9 °F 78% 30.28 in 10.0 mi SW 5.8 mph - N/A   Clear
8:53 AM 34.0 °F 31.0 °F 27.0 °F 75% 30.29 in 10.0 mi WSW 3.5 mph - N/A   Clear
9:53 AM 45.0 °F 41.2 °F 28.9 °F 53% 30.29 in 10.0 mi SW 6.9 mph - N/A   Clear
10:53 AM 53.1 °F - 28.9 °F 40% 30.28 in 10.0 mi South 9.2 mph - N/A   Clear
11:53 AM 59.0 °F - 28.9 °F 32% 30.26 in 10.0 mi SW 10.4 mph - N/A   Clear
12:53 PM 62.1 °F - 28.0 °F 28% 30.23 in 10.0 mi SW 12.7 mph 18.4 mph N/A   Clear
1:53 PM 64.0 °F - 26.1 °F 24% 30.20 in 10.0 mi South 9.2 mph 16.1 mph N/A   Clear
2:53 PM 64.9 °F - 25.0 °F 22% 30.16 in 10.0 mi South 8.1 mph - N/A   Clear
3:53 PM 68.0 °F - 27.0 °F 21% 30.12 in 10.0 mi SSW 11.5 mph - N/A   Clear
4:53 PM 66.9 °F - 26.1 °F 21% 30.09 in 10.0 mi South 17.3 mph 25.3 mph N/A   Clear
5:53 PM 64.9 °F - 26.1 °F 23% 30.09 in 10.0 mi South 16.1 mph 23.0 mph N/A   Clear
6:53 PM 61.0 °F - 26.1 °F 26% 30.08 in 9.0 mi South 10.4 mph - N/A   Clear
7:53 PM 55.9 °F - 26.1 °F 32% 30.09 in 10.0 mi South 9.2 mph - N/A   Clear
8:53 PM 53.1 °F - 26.1 °F 35% 30.09 in 10.0 mi SSE 10.4 mph - N/A   Clear
9:53 PM 51.1 °F - 27.0 °F 39% 30.07 in 10.0 mi South 10.4 mph - N/A   Clear
10:53 PM 48.0 °F - 27.0 °F 44% 30.06 in 10.0 mi South 9.2 mph - N/A   Clear
11:53 PM 50.0 °F - 28.0 °F 43% 30.04 in 10.0 mi South 12.7 mph - N/A   Clear